Year,Month,Day,Hour,Minute,Value (Times are PST for temperature in C)
2012,08,22,00,00,11.20
2012,08,22,00,01,11.20
2012,08,22,00,02,11.20
2012,08,22,00,03,11.10
2012,08,22,00,04,11.10
2012,08,22,00,05,11.10
2012,08,22,00,06,11.00
2012,08,22,00,07,11.00
2012,08,22,00,08,11.00
2012,08,22,00,09,10.90
2012,08,22,00,10,10.90
2012,08,22,00,11,10.90
2012,08,22,00,12,10.90
2012,08,22,00,13,10.90
2012,08,22,00,14,10.80
2012,08,22,00,15,10.80
2012,08,22,00,16,10.80
2012,08,22,00,17,10.80
2012,08,22,00,18,10.70
2012,08,22,00,19,10.70
2012,08,22,00,20,10.70
2012,08,22,00,21,10.70
2012,08,22,00,22,10.70
2012,08,22,00,23,10.70
2012,08,22,00,24,10.60
2012,08,22,00,25,10.60
2012,08,22,00,26,10.60
2012,08,22,00,27,10.60
2012,08,22,00,28,10.50
2012,08,22,00,29,10.50
2012,08,22,00,30,10.40
2012,08,22,00,31,10.40
2012,08,22,00,32,10.40
2012,08,22,00,33,10.40
2012,08,22,00,34,10.40
2012,08,22,00,35,10.30
2012,08,22,00,36,10.30
2012,08,22,00,37,10.30
2012,08,22,00,38,10.30
2012,08,22,00,39,10.30
2012,08,22,00,40,10.30
2012,08,22,00,41,10.20
2012,08,22,00,42,10.20
2012,08,22,00,43,10.20
2012,08,22,00,44,10.20
2012,08,22,00,45,10.20
2012,08,22,00,46,10.20
2012,08,22,00,47,10.20
2012,08,22,00,48,10.20
2012,08,22,00,49,10.10
2012,08,22,00,50,10.10
2012,08,22,00,51,10.10
2012,08,22,00,52,10.10
2012,08,22,00,53,10.10
2012,08,22,00,54,10.10
2012,08,22,00,55,10.00
2012,08,22,00,56,10.00
2012,08,22,00,57,10.00
2012,08,22,00,58,9.90
2012,08,22,00,59,9.90
2012,08,22,01,00,9.90
2012,08,22,01,01,9.90
2012,08,22,01,02,9.90
2012,08,22,01,03,9.80
2012,08,22,01,04,9.80
2012,08,22,01,05,9.80
2012,08,22,01,06,9.80
2012,08,22,01,07,9.80
2012,08,22,01,08,9.80
2012,08,22,01,09,9.70
2012,08,22,01,10,9.70
2012,08,22,01,11,9.70
2012,08,22,01,12,9.70
2012,08,22,01,13,9.60
2012,08,22,01,14,9.60
2012,08,22,01,15,9.60
2012,08,22,01,16,9.60
2012,08,22,01,17,9.60
2012,08,22,01,18,9.60
2012,08,22,01,19,9.50
2012,08,22,01,20,9.50
2012,08,22,01,21,9.50
2012,08,22,01,22,9.40
2012,08,22,01,23,9.40
2012,08,22,01,24,9.40
2012,08,22,01,25,9.40
2012,08,22,01,26,9.40
2012,08,22,01,27,9.40
2012,08,22,01,28,9.40
2012,08,22,01,29,9.40
2012,08,22,01,30,9.30
2012,08,22,01,31,9.30
2012,08,22,01,32,9.30
2012,08,22,01,33,9.30
2012,08,22,01,34,9.30
2012,08,22,01,35,9.30
2012,08,22,01,36,9.30
2012,08,22,01,37,9.30
2012,08,22,01,38,9.30
2012,08,22,01,39,9.30
2012,08,22,01,40,9.30
2012,08,22,01,41,9.20
2012,08,22,01,42,9.20
2012,08,22,01,43,9.20
2012,08,22,01,44,9.20
2012,08,22,01,45,9.20
2012,08,22,01,46,9.20
2012,08,22,01,47,9.20
2012,08,22,01,48,9.10
2012,08,22,01,49,9.10
2012,08,22,01,50,9.10
2012,08,22,01,51,9.10
2012,08,22,01,52,9.10
2012,08,22,01,53,9.00
2012,08,22,01,54,9.00
2012,08,22,01,55,9.00
2012,08,22,01,56,9.00
2012,08,22,01,57,8.90
2012,08,22,01,58,9.00
2012,08,22,01,59,8.90
2012,08,22,02,00,8.90
2012,08,22,02,01,8.90
2012,08,22,02,02,8.90
2012,08,22,02,03,8.90
2012,08,22,02,04,8.90
2012,08,22,02,05,8.90
2012,08,22,02,06,8.90
2012,08,22,02,07,8.90
2012,08,22,02,08,8.90
2012,08,22,02,09,8.90
2012,08,22,02,10,8.90
2012,08,22,02,11,8.90
2012,08,22,02,12,8.90
2012,08,22,02,13,8.90
2012,08,22,02,14,8.90
2012,08,22,02,15,8.80
2012,08,22,02,16,8.80
2012,08,22,02,17,8.80
2012,08,22,02,18,8.80
2012,08,22,02,19,8.80
2012,08,22,02,20,8.80
2012,08,22,02,21,8.80
2012,08,22,02,22,8.80
2012,08,22,02,23,8.80
2012,08,22,02,24,8.80
2012,08,22,02,25,8.70
2012,08,22,02,26,8.70
2012,08,22,02,27,8.70
2012,08,22,02,28,8.70
2012,08,22,02,29,8.70
2012,08,22,02,30,8.70
2012,08,22,02,31,8.70
2012,08,22,02,32,8.70
2012,08,22,02,33,8.70
2012,08,22,02,34,8.70
2012,08,22,02,35,8.70
2012,08,22,02,36,8.70
2012,08,22,02,37,8.70
2012,08,22,02,38,8.70
2012,08,22,02,39,8.60
2012,08,22,02,40,8.60
2012,08,22,02,41,8.60
2012,08,22,02,42,8.60
2012,08,22,02,43,8.60
2012,08,22,02,44,8.60
2012,08,22,02,45,8.60
2012,08,22,02,46,8.50
2012,08,22,02,47,8.50
2012,08,22,02,48,8.50
2012,08,22,02,49,8.50
2012,08,22,02,50,8.50
2012,08,22,02,51,8.50
2012,08,22,02,52,8.40
2012,08,22,02,53,8.40
2012,08,22,02,54,8.40
2012,08,22,02,55,8.40
2012,08,22,02,56,8.40
2012,08,22,02,57,8.40
2012,08,22,02,58,8.40
2012,08,22,02,59,8.40
2012,08,22,03,00,8.40
2012,08,22,03,01,8.30
2012,08,22,03,02,8.30
2012,08,22,03,03,8.30
2012,08,22,03,04,8.30
2012,08,22,03,05,8.30
2012,08,22,03,06,8.30
2012,08,22,03,07,8.30
2012,08,22,03,08,8.30
2012,08,22,03,09,8.30
2012,08,22,03,10,8.30
2012,08,22,03,11,8.20
2012,08,22,03,12,8.20
2012,08,22,03,13,8.20
2012,08,22,03,14,8.20
2012,08,22,03,15,8.20
2012,08,22,03,16,8.20
2012,08,22,03,17,8.20
2012,08,22,03,18,8.20
2012,08,22,03,19,8.20
2012,08,22,03,20,8.20
2012,08,22,03,21,8.20
2012,08,22,03,22,8.10
2012,08,22,03,23,8.10
2012,08,22,03,24,8.10
2012,08,22,03,25,8.10
2012,08,22,03,26,8.10
2012,08,22,03,27,8.10
2012,08,22,03,28,8.10
2012,08,22,03,29,8.00
2012,08,22,03,30,8.00
2012,08,22,03,31,8.00
2012,08,22,03,32,8.00
2012,08,22,03,33,7.90
2012,08,22,03,34,7.90
2012,08,22,03,35,7.90
2012,08,22,03,36,7.90
2012,08,22,03,37,7.90
2012,08,22,03,38,7.80
2012,08,22,03,39,7.80
2012,08,22,03,40,7.80
2012,08,22,03,41,7.80
2012,08,22,03,42,7.80
2012,08,22,03,43,7.80
2012,08,22,03,44,7.80
2012,08,22,03,45,7.80
2012,08,22,03,46,7.70
2012,08,22,03,47,7.70
2012,08,22,03,48,7.70
2012,08,22,03,49,7.70
2012,08,22,03,50,7.70
2012,08,22,03,51,7.70
2012,08,22,03,52,7.70
2012,08,22,03,53,7.60
2012,08,22,03,54,7.60
2012,08,22,03,55,7.60
2012,08,22,03,56,7.60
2012,08,22,03,57,7.60
2012,08,22,03,58,7.60
2012,08,22,03,59,7.60
2012,08,22,04,00,7.50
2012,08,22,04,01,7.50
2012,08,22,04,02,7.50
2012,08,22,04,03,7.50
2012,08,22,04,04,7.40
2012,08,22,04,05,7.40
2012,08,22,04,06,7.40
2012,08,22,04,07,7.40
2012,08,22,04,08,7.40
2012,08,22,04,09,7.40
2012,08,22,04,10,7.40
2012,08,22,04,11,7.30
2012,08,22,04,12,7.30
2012,08,22,04,13,7.30
2012,08,22,04,14,7.30
2012,08,22,04,15,7.30
2012,08,22,04,16,7.30
2012,08,22,04,17,7.30
2012,08,22,04,18,7.30
2012,08,22,04,19,7.30
2012,08,22,04,20,7.30
2012,08,22,04,21,7.30
2012,08,22,04,22,7.30
2012,08,22,04,23,7.20
2012,08,22,04,24,7.20
2012,08,22,04,25,7.20
2012,08,22,04,26,7.20
2012,08,22,04,27,7.20
2012,08,22,04,28,7.20
2012,08,22,04,29,7.20
2012,08,22,04,30,7.20
2012,08,22,04,31,7.20
2012,08,22,04,32,7.20
2012,08,22,04,33,7.20
2012,08,22,04,34,7.20
2012,08,22,04,35,7.10
2012,08,22,04,36,7.10
2012,08,22,04,37,7.10
2012,08,22,04,38,7.10
2012,08,22,04,39,7.10
2012,08,22,04,40,7.10
2012,08,22,04,41,7.10
2012,08,22,04,42,7.00
2012,08,22,04,43,7.00
2012,08,22,04,44,7.00
2012,08,22,04,45,7.00
2012,08,22,04,46,7.00
2012,08,22,04,47,6.90
2012,08,22,04,48,6.90
2012,08,22,04,49,6.90
2012,08,22,04,50,6.90
2012,08,22,04,51,6.90
2012,08,22,04,52,6.90
2012,08,22,04,53,6.90
2012,08,22,04,54,6.90
2012,08,22,04,55,6.80
2012,08,22,04,56,6.80
2012,08,22,04,57,6.80
2012,08,22,04,58,6.80
2012,08,22,04,59,6.80
2012,08,22,05,00,6.80
2012,08,22,05,01,6.80
2012,08,22,05,02,6.80
2012,08,22,05,03,6.80
2012,08,22,05,04,6.80
2012,08,22,05,05,6.80
2012,08,22,05,06,6.80
2012,08,22,05,07,6.80
2012,08,22,05,08,6.70
2012,08,22,05,09,6.70
2012,08,22,05,10,6.70
2012,08,22,05,11,6.70
2012,08,22,05,12,6.70
2012,08,22,05,13,6.70
2012,08,22,05,14,6.70
2012,08,22,05,15,6.70
2012,08,22,05,16,6.60
2012,08,22,05,17,6.60
2012,08,22,05,18,6.60
2012,08,22,05,19,6.60
2012,08,22,05,20,6.60
2012,08,22,05,21,6.60
2012,08,22,05,22,6.60
2012,08,22,05,23,6.60
2012,08,22,05,24,6.60
2012,08,22,05,25,6.50
2012,08,22,05,26,6.50
2012,08,22,05,27,6.50
2012,08,22,05,28,6.40
2012,08,22,05,29,6.40
2012,08,22,05,30,6.40
2012,08,22,05,31,6.40
2012,08,22,05,32,6.40
2012,08,22,05,33,6.40
2012,08,22,05,34,6.40
2012,08,22,05,35,6.40
2012,08,22,05,36,6.40
2012,08,22,05,37,6.40
2012,08,22,05,38,6.40
2012,08,22,05,39,6.40
2012,08,22,05,40,6.40
2012,08,22,05,41,6.40
2012,08,22,05,42,6.40
2012,08,22,05,43,6.40
2012,08,22,05,44,6.40
2012,08,22,05,45,6.40
2012,08,22,05,46,6.40
2012,08,22,05,47,6.40
2012,08,22,05,48,6.40
2012,08,22,05,49,6.40
2012,08,22,05,50,6.40
2012,08,22,05,51,6.30
2012,08,22,05,52,6.30
2012,08,22,05,53,6.30
2012,08,22,05,54,6.30
2012,08,22,05,55,6.30
2012,08,22,05,56,6.30
2012,08,22,05,57,6.30
2012,08,22,05,58,6.30
2012,08,22,05,59,6.30
2012,08,22,06,00,6.30
2012,08,22,06,01,6.30
2012,08,22,06,02,6.30
2012,08,22,06,03,6.30
2012,08,22,06,04,6.30
2012,08,22,06,05,6.30
2012,08,22,06,06,6.30
2012,08,22,06,07,6.30
2012,08,22,06,08,6.30
2012,08,22,06,09,6.30
2012,08,22,06,10,6.20
2012,08,22,06,11,6.20
2012,08,22,06,12,6.20
2012,08,22,06,13,6.20
2012,08,22,06,14,6.20
2012,08,22,06,15,6.20
2012,08,22,06,16,6.20
2012,08,22,06,17,6.20
2012,08,22,06,18,6.20
2012,08,22,06,19,6.10
2012,08,22,06,20,6.10
2012,08,22,06,21,6.10
2012,08,22,06,22,6.10
2012,08,22,06,23,6.10
2012,08,22,06,24,6.10
2012,08,22,06,25,6.10
2012,08,22,06,26,6.10
2012,08,22,06,27,6.10
2012,08,22,06,28,6.10
2012,08,22,06,29,6.00
2012,08,22,06,30,6.00
2012,08,22,06,31,6.00
2012,08,22,06,32,6.00
2012,08,22,06,33,6.00
2012,08,22,06,34,6.00
2012,08,22,06,35,5.90
2012,08,22,06,36,5.90
2012,08,22,06,37,5.90
2012,08,22,06,38,5.90
2012,08,22,06,39,5.90
2012,08,22,06,40,5.90
2012,08,22,06,41,5.90
2012,08,22,06,42,5.90
2012,08,22,06,43,5.90
2012,08,22,06,44,5.90
2012,08,22,06,45,5.90
2012,08,22,06,46,5.90
2012,08,22,06,47,5.90
2012,08,22,06,48,5.90
2012,08,22,06,49,5.90
2012,08,22,06,50,5.90
2012,08,22,06,51,5.90
2012,08,22,06,52,5.90
2012,08,22,06,53,5.90
2012,08,22,06,54,5.90
2012,08,22,06,55,5.80
2012,08,22,06,56,5.80
2012,08,22,06,57,5.80
2012,08,22,06,58,5.80
2012,08,22,06,59,5.80
2012,08,22,07,00,5.80
2012,08,22,07,01,5.80
2012,08,22,07,02,5.80
2012,08,22,07,03,5.80
2012,08,22,07,04,5.80
2012,08,22,07,05,5.80
2012,08,22,07,06,5.80
2012,08,22,07,07,5.80
2012,08,22,07,08,5.80
2012,08,22,07,09,5.80
2012,08,22,07,10,5.80
2012,08,22,07,11,5.80
2012,08,22,07,12,5.80
2012,08,22,07,13,5.80
2012,08,22,07,14,5.80
2012,08,22,07,15,5.80
2012,08,22,07,16,5.80
2012,08,22,07,17,5.80
2012,08,22,07,18,5.80
2012,08,22,07,19,5.80
2012,08,22,07,20,5.80
2012,08,22,07,21,5.80
2012,08,22,07,22,5.90
2012,08,22,07,23,5.90
2012,08,22,07,24,5.90
2012,08,22,07,25,5.90
2012,08,22,07,26,5.90
2012,08,22,07,27,5.90
2012,08,22,07,28,5.90
2012,08,22,07,29,5.90
2012,08,22,07,30,5.90
2012,08,22,07,31,5.90
2012,08,22,07,32,5.90
2012,08,22,07,33,5.90
2012,08,22,07,34,5.90
2012,08,22,07,35,5.90
2012,08,22,07,36,5.90
2012,08,22,07,37,5.80
2012,08,22,07,38,5.80
2012,08,22,07,39,5.80
2012,08,22,07,40,5.80
2012,08,22,07,41,5.80
2012,08,22,07,42,5.80
2012,08,22,07,43,5.80
2012,08,22,07,44,5.80
2012,08,22,07,45,5.80
2012,08,22,07,46,5.80
2012,08,22,07,47,5.80
2012,08,22,07,48,5.80
2012,08,22,07,49,5.80
2012,08,22,07,50,5.80
2012,08,22,07,51,5.80
2012,08,22,07,52,5.80
2012,08,22,07,53,5.80
2012,08,22,07,54,5.80
2012,08,22,07,55,5.80
2012,08,22,07,56,5.80
2012,08,22,07,57,5.80
2012,08,22,07,58,5.80
2012,08,22,07,59,5.80
2012,08,22,08,00,5.80
2012,08,22,08,01,5.80
2012,08,22,08,02,5.80
2012,08,22,08,03,5.80
2012,08,22,08,04,5.80
2012,08,22,08,05,5.80
2012,08,22,08,06,5.80
2012,08,22,08,07,5.80
2012,08,22,08,08,5.80
2012,08,22,08,09,5.80
2012,08,22,08,10,5.80
2012,08,22,08,11,5.80
2012,08,22,08,12,5.80
2012,08,22,08,13,5.80
2012,08,22,08,14,5.80
2012,08,22,08,15,5.80
2012,08,22,08,16,5.80
2012,08,22,08,17,5.80
2012,08,22,08,18,5.80
2012,08,22,08,19,5.80
2012,08,22,08,20,5.80
2012,08,22,08,21,5.80
2012,08,22,08,22,5.80
2012,08,22,08,23,5.80
2012,08,22,08,24,5.80
2012,08,22,08,25,5.80
2012,08,22,08,26,5.80
2012,08,22,08,27,5.80
2012,08,22,08,28,5.90
2012,08,22,08,29,5.90
2012,08,22,08,30,5.90
2012,08,22,08,31,5.90
2012,08,22,08,32,5.90
2012,08,22,08,33,5.90
2012,08,22,08,34,5.90
2012,08,22,08,35,5.90
2012,08,22,08,36,5.90
2012,08,22,08,37,5.90
2012,08,22,08,38,5.90
2012,08,22,08,39,5.90
2012,08,22,08,40,5.90
2012,08,22,08,41,6.00
2012,08,22,08,42,6.00
2012,08,22,08,43,6.00
2012,08,22,08,44,6.00
2012,08,22,08,45,6.10
2012,08,22,08,46,6.10
2012,08,22,08,47,6.10
2012,08,22,08,48,6.10
2012,08,22,08,49,6.10
2012,08,22,08,50,6.10
2012,08,22,08,51,6.10
2012,08,22,08,52,6.10
2012,08,22,08,53,6.10
2012,08,22,08,54,6.10
2012,08,22,08,55,6.20
2012,08,22,08,56,6.20
2012,08,22,08,57,6.20
2012,08,22,08,58,6.20
2012,08,22,08,59,6.20
2012,08,22,09,00,6.20
2012,08,22,09,01,6.20
2012,08,22,09,02,6.20
2012,08,22,09,03,6.20
2012,08,22,09,04,6.20
2012,08,22,09,05,6.20
2012,08,22,09,06,6.20
2012,08,22,09,07,6.20
2012,08,22,09,08,6.20
2012,08,22,09,09,6.20
2012,08,22,09,10,6.20
2012,08,22,09,11,6.20
2012,08,22,09,12,6.20
2012,08,22,09,13,6.20
2012,08,22,09,14,6.20
2012,08,22,09,15,6.20
2012,08,22,09,16,6.20
2012,08,22,09,17,6.20
2012,08,22,09,18,6.30
2012,08,22,09,19,6.30
2012,08,22,09,20,6.30
2012,08,22,09,21,6.30
2012,08,22,09,22,6.30
2012,08,22,09,23,6.30
2012,08,22,09,24,6.40
2012,08,22,09,25,6.40
2012,08,22,09,26,6.50
2012,08,22,09,27,6.60
2012,08,22,09,28,6.60
2012,08,22,09,29,6.70
2012,08,22,09,30,6.80
2012,08,22,09,31,6.80
2012,08,22,09,32,6.80
2012,08,22,09,33,6.90
2012,08,22,09,34,7.00
2012,08,22,09,35,7.00
2012,08,22,09,36,7.10
2012,08,22,09,37,7.20
2012,08,22,09,38,7.30
2012,08,22,09,39,7.30
2012,08,22,09,40,7.40
2012,08,22,09,41,7.40
2012,08,22,09,42,7.50
2012,08,22,09,43,7.50
2012,08,22,09,44,7.60
2012,08,22,09,45,7.70
2012,08,22,09,46,7.70
2012,08,22,09,47,7.80
2012,08,22,09,48,7.80
2012,08,22,09,49,7.90
2012,08,22,09,50,7.90
2012,08,22,09,51,8.00
2012,08,22,09,52,8.00
2012,08,22,09,53,8.10
2012,08,22,09,54,8.10
2012,08,22,09,55,8.20
2012,08,22,09,56,8.20
2012,08,22,09,57,8.30
2012,08,22,09,58,8.40
2012,08,22,09,59,8.40
2012,08,22,10,00,8.50
2012,08,22,10,01,8.50
2012,08,22,10,02,8.60
2012,08,22,10,03,8.70
2012,08,22,10,04,8.70
2012,08,22,10,05,8.80
2012,08,22,10,06,8.80
2012,08,22,10,07,8.90
2012,08,22,10,08,8.90
2012,08,22,10,09,9.00
2012,08,22,10,10,9.10
2012,08,22,10,11,9.10
2012,08,22,10,12,9.20
2012,08,22,10,13,9.20
2012,08,22,10,14,9.30
2012,08,22,10,15,9.30
2012,08,22,10,16,9.40
2012,08,22,10,17,9.40
2012,08,22,10,18,9.50
2012,08,22,10,19,9.50
2012,08,22,10,20,9.60
2012,08,22,10,21,9.60
2012,08,22,10,22,9.70
2012,08,22,10,23,9.80
2012,08,22,10,24,9.80
2012,08,22,10,25,9.80
2012,08,22,10,26,9.90
2012,08,22,10,27,9.90
2012,08,22,10,28,10.00
2012,08,22,10,29,10.00
2012,08,22,10,30,10.10
2012,08,22,10,31,10.20
2012,08,22,10,32,10.30
2012,08,22,10,33,10.30
2012,08,22,10,34,10.40
2012,08,22,10,35,10.50
2012,08,22,10,36,10.60
2012,08,22,10,37,10.70
2012,08,22,10,38,10.80
2012,08,22,10,39,10.80
2012,08,22,10,40,10.90
2012,08,22,10,41,10.90
2012,08,22,10,42,11.00
2012,08,22,10,43,11.00
2012,08,22,10,44,11.10
2012,08,22,10,45,11.10
2012,08,22,10,46,11.20
2012,08,22,10,47,11.20
2012,08,22,10,48,11.30
2012,08,22,10,49,11.30
2012,08,22,10,50,11.40
2012,08,22,10,51,11.40
2012,08,22,10,52,11.40
2012,08,22,10,53,11.50
2012,08,22,10,54,11.50
2012,08,22,10,55,11.60
2012,08,22,10,56,11.60
2012,08,22,10,57,11.70
2012,08,22,10,58,11.70
2012,08,22,10,59,11.80
2012,08,22,11,00,11.90
2012,08,22,11,01,11.90
2012,08,22,11,02,12.00
2012,08,22,11,03,12.10
2012,08,22,11,04,12.10
2012,08,22,11,05,12.10
2012,08,22,11,06,12.20
2012,08,22,11,07,12.30
2012,08,22,11,08,12.30
2012,08,22,11,09,12.40
2012,08,22,11,10,12.40
2012,08,22,11,11,12.40
2012,08,22,11,12,12.50
2012,08,22,11,13,12.50
2012,08,22,11,14,12.60
2012,08,22,11,15,12.60
2012,08,22,11,16,12.70
2012,08,22,11,17,12.70
2012,08,22,11,18,12.80
2012,08,22,11,19,12.80
2012,08,22,11,20,12.90
2012,08,22,11,21,12.90
2012,08,22,11,22,13.00
2012,08,22,11,23,13.10
2012,08,22,11,24,13.10
2012,08,22,11,25,13.20
2012,08,22,11,26,13.30
2012,08,22,11,27,13.30
2012,08,22,11,28,13.40
2012,08,22,11,29,13.40
2012,08,22,11,30,13.50
2012,08,22,11,31,13.50
2012,08,22,11,32,13.50
2012,08,22,11,33,13.50
2012,08,22,11,34,13.60
2012,08,22,11,35,13.60
2012,08,22,11,36,13.60
2012,08,22,11,37,13.60
2012,08,22,11,38,13.70
2012,08,22,11,39,13.70
2012,08,22,11,40,13.80
2012,08,22,11,41,13.80
2012,08,22,11,42,13.90
2012,08,22,11,43,14.00
2012,08,22,11,44,14.00
2012,08,22,11,45,14.10
2012,08,22,11,46,14.20
2012,08,22,11,47,14.30
2012,08,22,11,48,14.30
2012,08,22,11,49,14.40
2012,08,22,11,50,14.40
2012,08,22,11,51,14.50
2012,08,22,11,52,14.60
2012,08,22,11,53,14.60
2012,08,22,11,54,14.60
2012,08,22,11,55,14.60
2012,08,22,11,56,14.60
2012,08,22,11,57,14.60
2012,08,22,11,58,14.70
2012,08,22,11,59,14.70
2012,08,22,12,00,14.80
2012,08,22,12,01,14.80
2012,08,22,12,02,14.90
2012,08,22,12,03,14.90
2012,08,22,12,04,14.90
2012,08,22,12,05,14.90
2012,08,22,12,06,14.90
2012,08,22,12,07,14.90
2012,08,22,12,08,15.00
2012,08,22,12,09,15.00
2012,08,22,12,10,15.10
2012,08,22,12,11,15.10
2012,08,22,12,12,15.20
2012,08,22,12,13,15.20
2012,08,22,12,14,15.20
2012,08,22,12,15,15.20
2012,08,22,12,16,15.20
2012,08,22,12,17,15.20
2012,08,22,12,18,15.20
2012,08,22,12,19,15.20
2012,08,22,12,20,15.20
2012,08,22,12,21,15.20
2012,08,22,12,22,15.30
2012,08,22,12,23,15.20
2012,08,22,12,24,15.20
2012,08,22,12,25,15.20
2012,08,22,12,26,15.20
2012,08,22,12,27,15.20
2012,08,22,12,28,15.20
2012,08,22,12,29,15.30
2012,08,22,12,30,15.30
2012,08,22,12,31,15.30
2012,08,22,12,32,15.30
2012,08,22,12,33,15.30
2012,08,22,12,34,15.30
2012,08,22,12,35,15.40
2012,08,22,12,36,15.40
2012,08,22,12,37,15.40
2012,08,22,12,38,15.50
2012,08,22,12,39,15.60
2012,08,22,12,40,15.60
2012,08,22,12,41,15.70
2012,08,22,12,42,15.70
2012,08,22,12,43,15.80
2012,08,22,12,44,15.80
2012,08,22,12,45,15.90
2012,08,22,12,46,16.00
2012,08,22,12,47,16.10
2012,08,22,12,48,16.20
2012,08,22,12,49,16.30
2012,08,22,12,50,16.30
2012,08,22,12,51,16.40
2012,08,22,12,52,16.50
2012,08,22,12,53,16.50
2012,08,22,12,54,16.60
2012,08,22,12,55,16.70
2012,08,22,12,56,16.80
2012,08,22,12,57,16.80
2012,08,22,12,58,16.90
2012,08,22,12,59,16.90
2012,08,22,13,00,17.00
2012,08,22,13,01,17.00
2012,08,22,13,02,17.10
2012,08,22,13,03,17.10
2012,08,22,13,04,17.10
2012,08,22,13,05,17.10
2012,08,22,13,06,17.20
2012,08,22,13,07,17.20
2012,08,22,13,08,17.20
2012,08,22,13,09,17.30
2012,08,22,13,10,17.30
2012,08,22,13,11,17.30
2012,08,22,13,12,17.30
2012,08,22,13,13,17.40
2012,08,22,13,14,17.40
2012,08,22,13,15,17.50
2012,08,22,13,16,17.50
2012,08,22,13,17,17.50
2012,08,22,13,18,17.60
2012,08,22,13,19,17.60
2012,08,22,13,20,17.60
2012,08,22,13,21,17.70
2012,08,22,13,22,17.70
2012,08,22,13,23,17.80
2012,08,22,13,24,17.80
2012,08,22,13,25,17.80
2012,08,22,13,26,17.90
2012,08,22,13,27,17.90
2012,08,22,13,28,18.00
2012,08,22,13,29,18.00
2012,08,22,13,30,18.10
2012,08,22,13,31,18.10
2012,08,22,13,32,18.20
2012,08,22,13,33,18.20
2012,08,22,13,34,18.20
2012,08,22,13,35,18.20
2012,08,22,13,36,18.20
2012,08,22,13,37,18.20
2012,08,22,13,38,18.30
2012,08,22,13,39,18.30
2012,08,22,13,40,18.30
2012,08,22,13,41,18.40
2012,08,22,13,42,18.40
2012,08,22,13,43,18.40
2012,08,22,13,44,18.40
2012,08,22,13,45,18.40
2012,08,22,13,46,18.40
2012,08,22,13,47,18.50
2012,08,22,13,48,18.50
2012,08,22,13,49,18.50
2012,08,22,13,50,18.50
2012,08,22,13,51,18.60
2012,08,22,13,52,18.60
2012,08,22,13,53,18.60
2012,08,22,13,54,18.60
2012,08,22,13,55,18.60
2012,08,22,13,56,18.60
2012,08,22,13,57,18.70
2012,08,22,13,58,18.70
2012,08,22,13,59,18.80
2012,08,22,14,00,18.90
2012,08,22,14,01,18.90
2012,08,22,14,02,19.00
2012,08,22,14,03,19.00
2012,08,22,14,04,19.10
2012,08,22,14,05,19.10
2012,08,22,14,06,19.20
2012,08,22,14,07,19.30
2012,08,22,14,08,19.30
2012,08,22,14,09,19.30
2012,08,22,14,10,19.30
2012,08,22,14,11,19.30
2012,08,22,14,12,19.30
2012,08,22,14,13,19.30
2012,08,22,14,14,19.30
2012,08,22,14,15,19.30
2012,08,22,14,16,19.40
2012,08,22,14,17,19.40
2012,08,22,14,18,19.40
2012,08,22,14,19,19.40
2012,08,22,14,20,19.50
2012,08,22,14,21,19.50
2012,08,22,14,22,19.60
2012,08,22,14,23,19.60
2012,08,22,14,24,19.60
2012,08,22,14,25,19.60
2012,08,22,14,26,19.60
2012,08,22,14,27,19.60
2012,08,22,14,28,19.60
2012,08,22,14,29,19.60
2012,08,22,14,30,19.60
2012,08,22,14,31,19.60
2012,08,22,14,32,19.60
2012,08,22,14,33,19.50
2012,08,22,14,34,19.50
2012,08,22,14,35,19.50
2012,08,22,14,36,19.40
2012,08,22,14,37,19.40
2012,08,22,14,38,19.40
2012,08,22,14,39,19.40
2012,08,22,14,40,19.40
2012,08,22,14,41,19.40
2012,08,22,14,42,19.40
2012,08,22,14,43,19.50
2012,08,22,14,44,19.50
2012,08,22,14,45,19.40
2012,08,22,14,46,19.40
2012,08,22,14,47,19.40
2012,08,22,14,48,19.40
2012,08,22,14,49,19.40
2012,08,22,14,50,19.40
2012,08,22,14,51,19.40
2012,08,22,14,52,19.50
2012,08,22,14,53,19.50
2012,08,22,14,54,19.60
2012,08,22,14,55,19.60
2012,08,22,14,56,19.70
2012,08,22,14,57,19.70
2012,08,22,14,58,19.70
2012,08,22,14,59,19.60
2012,08,22,15,00,19.60
2012,08,22,15,01,19.60
2012,08,22,15,02,19.60
2012,08,22,15,03,19.60
2012,08,22,15,04,19.60
2012,08,22,15,05,19.60
2012,08,22,15,06,19.70
2012,08,22,15,07,19.70
2012,08,22,15,08,19.70
2012,08,22,15,09,19.80
2012,08,22,15,10,19.80
2012,08,22,15,11,19.90
2012,08,22,15,12,20.00
2012,08,22,15,13,20.00
2012,08,22,15,14,20.10
2012,08,22,15,15,20.10
2012,08,22,15,16,20.20
2012,08,22,15,17,20.20
2012,08,22,15,18,20.30
2012,08,22,15,19,20.30
2012,08,22,15,20,20.40
2012,08,22,15,21,20.40
2012,08,22,15,22,20.50
2012,08,22,15,23,20.50
2012,08,22,15,24,20.50
2012,08,22,15,25,20.50
2012,08,22,15,26,20.40
2012,08,22,15,27,20.40
2012,08,22,15,28,20.40
2012,08,22,15,29,20.40
2012,08,22,15,30,20.50
2012,08,22,15,31,20.50
2012,08,22,15,32,20.60
2012,08,22,15,33,20.60
2012,08,22,15,34,20.60
2012,08,22,15,35,20.60
2012,08,22,15,36,20.60
2012,08,22,15,37,20.60
2012,08,22,15,38,20.70
2012,08,22,15,39,20.70
2012,08,22,15,40,20.80
2012,08,22,15,41,20.80
2012,08,22,15,42,20.80
2012,08,22,15,43,20.80
2012,08,22,15,44,20.90
2012,08,22,15,45,20.90
2012,08,22,15,46,20.90
2012,08,22,15,47,20.90
2012,08,22,15,48,20.80
2012,08,22,15,49,20.80
2012,08,22,15,50,20.80
2012,08,22,15,51,20.80
2012,08,22,15,52,20.80
2012,08,22,15,53,20.70
2012,08,22,15,54,20.70
2012,08,22,15,55,20.80
2012,08,22,15,56,20.80
2012,08,22,15,57,20.80
2012,08,22,15,58,20.80
2012,08,22,15,59,20.80
2012,08,22,16,00,20.80
2012,08,22,16,01,20.80
2012,08,22,16,02,20.80
2012,08,22,16,03,20.80
2012,08,22,16,04,20.80
2012,08,22,16,05,20.90
2012,08,22,16,06,20.90
2012,08,22,16,07,20.90
2012,08,22,16,08,20.90
2012,08,22,16,09,20.90
2012,08,22,16,10,20.90
2012,08,22,16,11,20.90
2012,08,22,16,12,20.90
2012,08,22,16,13,20.90
2012,08,22,16,14,20.90
2012,08,22,16,15,20.90
2012,08,22,16,16,20.90
2012,08,22,16,17,21.00
2012,08,22,16,18,21.00
2012,08,22,16,19,21.00
2012,08,22,16,20,21.00
2012,08,22,16,21,21.00
2012,08,22,16,22,21.00
2012,08,22,16,23,21.10
2012,08,22,16,24,21.10
2012,08,22,16,25,21.10
2012,08,22,16,26,21.10
2012,08,22,16,27,21.10
2012,08,22,16,28,21.20
2012,08,22,16,29,21.20
2012,08,22,16,30,21.20
2012,08,22,16,31,21.20
2012,08,22,16,32,21.20
2012,08,22,16,33,21.30
2012,08,22,16,34,21.30
2012,08,22,16,35,21.30
2012,08,22,16,36,21.40
2012,08,22,16,37,21.40
2012,08,22,16,38,21.40
2012,08,22,16,39,21.40
2012,08,22,16,40,21.50
2012,08,22,16,41,21.50
2012,08,22,16,42,21.50
2012,08,22,16,43,21.40
2012,08,22,16,44,21.40
2012,08,22,16,45,21.40
2012,08,22,16,46,21.40
2012,08,22,16,47,21.40
2012,08,22,16,48,21.40
2012,08,22,16,49,21.40
2012,08,22,16,50,21.30
2012,08,22,16,51,21.30
2012,08,22,16,52,21.30
2012,08,22,16,53,21.30
2012,08,22,16,54,21.30
2012,08,22,16,55,21.30
2012,08,22,16,56,21.30
2012,08,22,16,57,21.30
2012,08,22,16,58,21.30
2012,08,22,16,59,21.30
2012,08,22,17,00,21.30
2012,08,22,17,01,21.40
2012,08,22,17,02,21.40
2012,08,22,17,03,21.50
2012,08,22,17,04,21.50
2012,08,22,17,05,21.50
2012,08,22,17,06,21.60
2012,08,22,17,07,21.60
2012,08,22,17,08,21.60
2012,08,22,17,09,21.60
2012,08,22,17,10,21.60
2012,08,22,17,11,21.60
2012,08,22,17,12,21.60
2012,08,22,17,13,21.60
2012,08,22,17,14,21.60
2012,08,22,17,15,21.60
2012,08,22,17,16,21.60
2012,08,22,17,17,21.60
2012,08,22,17,18,21.60
2012,08,22,17,19,21.60
2012,08,22,17,20,21.70
2012,08,22,17,21,21.70
2012,08,22,17,22,21.80
2012,08,22,17,23,21.80
2012,08,22,17,24,21.80
2012,08,22,17,25,21.80
2012,08,22,17,26,21.80
2012,08,22,17,27,21.80
2012,08,22,17,28,21.70
2012,08,22,17,29,21.70
2012,08,22,17,30,21.70
2012,08,22,17,31,21.80
2012,08,22,17,32,21.80
2012,08,22,17,33,21.80
2012,08,22,17,34,21.70
2012,08,22,17,35,21.70
2012,08,22,17,36,21.70
2012,08,22,17,37,21.70
2012,08,22,17,38,21.70
2012,08,22,17,39,21.70
2012,08,22,17,40,21.70
2012,08,22,17,41,21.70
2012,08,22,17,42,21.70
2012,08,22,17,43,21.70
2012,08,22,17,44,21.70